�������l�o���
Date,Time,MP-1(��Sv/h),MP-2(��Sv/h),MP-3(��Sv/h),MP-4(��Sv/h),MP-5(��Sv/h),MP-6(��Sv/h),MP-7(��Sv/h),MP-8(��Sv/h),����,����(m/s),���J
2020/11/06,00:00,0.660,0.953,0.603,1.184,0.847,0.383,0.670,0.631,���k��,2.8,��
2020/11/06,00:10,0.660,0.951,0.604,1.182,0.848,0.382,0.671,0.630,���k��,2.0,��
2020/11/06,00:20,0.659,0.952,0.603,1.182,0.846,0.383,0.671,0.631,���k��,2.5,��
2020/11/06,00:30,0.659,0.954,0.604,1.182,0.847,0.384,0.671,0.631,���k��,2.5,��
2020/11/06,00:40,0.660,0.951,0.603,1.183,0.847,0.384,0.671,0.632,���k��,3.3,��
2020/11/06,00:50,0.659,0.951,0.604,1.184,0.848,0.382,0.670,0.633,���k��,4.4,��
2020/11/06,01:00,0.660,0.953,0.603,1.179,0.846,0.383,0.671,0.633,���k��,4.1,��
2020/11/06,01:10,0.660,0.950,0.602,1.184,0.847,0.384,0.671,0.631,���k��,4.0,��
2020/11/06,01:20,0.658,0.952,0.604,1.181,0.846,0.383,0.670,0.631,���쐼,2.6,��
2020/11/06,01:30,0.659,0.953,0.604,1.183,0.847,0.382,0.671,0.632,���쐼,2.8,��
2020/11/06,01:40,0.658,0.949,0.603,1.182,0.846,0.384,0.670,0.632,���쐼,3.3,��
2020/11/06,01:50,0.658,0.952,0.604,1.182,0.847,0.383,0.669,0.631,���쐼,3.4,��
2020/11/06,02:00,0.659,0.951,0.604,1.179,0.847,0.383,0.670,0.633,��,3.2,��
2020/11/06,02:10,0.660,0.952,0.601,1.183,0.847,0.382,0.669,0.632,��,3.3,��
2020/11/06,02:20,0.657,0.951,0.602,1.182,0.846,0.382,0.669,0.632,��,3.2,��
2020/11/06,02:30,0.658,0.952,0.603,1.180,0.846,0.382,0.672,0.630,��,3.8,��
2020/11/06,02:40,0.659,0.953,0.604,1.182,0.847,0.382,0.670,0.630,��,5.1,��
2020/11/06,02:50,0.660,0.951,0.603,1.182,0.846,0.381,0.669,0.631,��,5.1,��
2020/11/06,03:00,0.658,0.950,0.603,1.180,0.847,0.383,0.669,0.630,��,4.8,��
2020/11/06,03:10,0.659,0.950,0.602,1.181,0.846,0.383,0.671,0.630,��,4.5,��
2020/11/06,03:20,0.660,0.952,0.602,1.180,0.846,0.382,0.671,0.631,��,3.5,��
2020/11/06,03:30,0.661,0.952,0.604,1.183,0.846,0.383,0.671,0.631,��,4.2,��
2020/11/06,03:40,0.658,0.950,0.605,1.183,0.847,0.384,0.669,0.633,��,4.2,��
2020/11/06,03:50,0.660,0.951,0.602,1.183,0.845,0.383,0.672,0.632,��,4.5,��
2020/11/06,04:00,0.659,0.951,0.603,1.184,0.846,0.384,0.671,0.633,��,4.2,��
2020/11/06,04:10,0.659,0.951,0.602,1.182,0.847,0.382,0.670,0.630,��,2.2,��
2020/11/06,04:20,0.658,0.952,0.603,1.180,0.846,0.383,0.670,0.632,���k��,2.5,��
2020/11/06,04:30,0.658,0.951,0.603,1.180,0.845,0.383,0.670,0.632,���k��,1.7,��
2020/11/06,04:40,0.657,0.951,0.604,1.183,0.846,0.383,0.671,0.631,���쐼,1.2,��
2020/11/06,04:50,0.660,0.953,0.604,1.182,0.847,0.384,0.670,0.632,���쐼,2.6,��
2020/11/06,05:00,0.659,0.951,0.603,1.181,0.847,0.381,0.672,0.633,��,1.9,��
2020/11/06,05:10,0.661,0.952,0.604,1.181,0.846,0.383,0.672,0.632,��,3.0,��
2020/11/06,05:20,0.658,0.951,0.603,1.182,0.848,0.382,0.671,0.631,���k��,3.0,��
2020/11/06,05:30,0.659,0.950,0.603,1.179,0.846,0.383,0.671,0.630,���k��,2.0,��
2020/11/06,05:40,0.660,0.949,0.604,1.182,0.846,0.383,0.671,0.631,��,1.5,��
2020/11/06,05:50,0.659,0.952,0.602,1.181,0.846,0.383,0.672,0.633,��쓌,1.4,��
2020/11/06,06:00,0.660,0.952,0.605,1.184,0.846,0.383,0.671,0.632,��,1.7,��
2020/11/06,06:10,0.659,0.950,0.604,1.182,0.848,0.382,0.670,0.631,��쓌,1.2,��
2020/11/06,06:20,0.658,0.952,0.603,1.182,0.847,0.381,0.670,0.631,��,2.0,��
2020/11/06,06:30,0.660,0.951,0.604,1.181,0.843,0.383,0.671,0.632,��쐼,1.7,��
2020/11/06,06:40,0.658,0.949,0.603,1.182,0.844,0.383,0.671,0.632,��,1.1,��
2020/11/06,06:50,0.660,0.953,0.604,1.183,0.845,0.381,0.670,0.630,-,CALM,��
2020/11/06,07:00,0.658,0.953,0.603,1.180,0.845,0.383,0.671,0.630,��,0.8,��
2020/11/06,07:10,0.659,0.953,0.603,1.180,0.845,0.382,0.670,0.632,-,CALM,��
2020/11/06,07:20,0.660,0.951,0.605,1.181,0.847,0.385,0.672,0.630,-,CALM,��
2020/11/06,07:30,0.659,0.953,0.605,1.183,0.845,0.382,0.671,0.632,�쐼,0.9,��
2020/11/06,07:40,0.660,0.954,0.605,1.182,0.848,0.383,0.671,0.631,-,CALM,��
2020/11/06,07:50,0.661,0.952,0.603,1.183,0.849,0.383,0.671,0.631,-,CALM,��
2020/11/06,08:00,0.660,0.952,0.604,1.180,0.846,0.382,0.670,0.631,�k�k��,0.8,��
2020/11/06,08:10,0.661,0.952,0.605,1.183,0.847,0.382,0.670,0.633,�k��,2.2,��
2020/11/06,08:20,0.661,0.949,0.605,1.182,0.846,0.384,0.672,0.632,�k�k��,1.1,��
2020/11/06,08:30,0.661,0.948,0.602,1.184,0.847,0.384,0.671,0.633,�k�k��,0.9,��
2020/11/06,08:40,0.664,0.949,0.606,1.180,0.848,0.384,0.670,0.632,���k��,1.2,��
2020/11/06,08:50,0.662,0.949,0.604,1.183,0.848,0.384,0.668,0.633,��,1.2,��
2020/11/06,09:00,0.661,0.948,0.604,1.184,0.848,0.383,0.669,0.632,�쐼,1.2,��
2020/11/06,09:10,0.662,0.948,0.605,1.183,0.847,0.384,0.667,0.633,�쐼,1.4,��
2020/11/06,09:20,0.662,0.946,0.606,1.182,0.847,0.384,0.669,0.635,�쐼,1.5,��
2020/11/06,09:30,0.660,0.948,0.605,1.184,0.848,0.384,0.667,0.633,���쐼,1.5,��
2020/11/06,09:40,0.663,0.947,0.605,1.184,0.847,0.384,0.669,0.633,��,1.7,��
2020/11/06,09:50,0.662,0.947,0.605,1.184,0.848,0.384,0.668,0.634,��,3.2,��
2020/11/06,10:00,0.662,0.949,0.606,1.181,0.848,0.384,0.668,0.632,��,2.9,��
2020/11/06,10:10,0.660,0.948,0.608,1.183,0.847,0.382,0.669,0.632,��쓌,3.3,��
2020/11/06,10:20,0.661,0.946,0.606,1.185,0.849,-,0.667,0.632,��쓌,3.0,��
2020/11/06,10:30,0.664,0.952,0.606,1.185,0.850,-,0.669,0.631,��쓌,4.9,��
2020/11/06,10:40,0.661,0.948,0.604,1.185,0.848,-,0.671,0.631,��쓌,6.6,��
2020/11/06,10:50,0.663,0.947,0.606,1.183,0.846,-,0.671,0.631,��쓌,7.3,��
2020/11/06,11:00,0.664,0.947,0.606,1.185,0.847,-,0.672,0.631,��쓌,8.0,��
2020/11/06,11:10,0.659,0.949,0.607,1.184,0.847,-,0.670,0.631,��쓌,7.2,��
2020/11/06,11:20,0.663,0.950,0.606,1.185,0.846,-,0.671,0.631,��,5.8,��
2020/11/06,11:30,0.662,0.952,0.606,1.186,0.846,-,0.671,0.631,��쓌,7.0,��
2020/11/06,11:40,0.664,0.950,0.605,1.183,0.846,-,0.671,0.634,��,4.8,��
2020/11/06,11:50,0.663,0.953,0.605,1.187,0.847,-,0.670,0.631,��,6.6,��
2020/11/06,12:00,0.662,0.950,0.606,1.187,0.845,-,0.670,0.630,��,5.3,��
2020/11/06,12:10,0.663,0.953,0.606,1.184,0.846,-,0.671,0.632,��,5.4,��
2020/11/06,12:20,0.663,0.956,0.607,1.184,0.847,-,0.670,0.632,��,4.8,��
2020/11/06,12:30,0.661,0.954,0.607,1.184,0.848,-,0.670,0.631,��,6.7,��
2020/11/06,12:40,0.663,0.954,0.605,1.185,0.845,-,0.671,0.632,��,7.1,��
2020/11/06,12:50,0.663,0.955,0.607,1.186,0.848,-,0.670,0.632,��,5.6,��
2020/11/06,13:00,0.662,0.953,0.608,1.184,0.848,0.384,0.672,0.630,��,5.1,��
2020/11/06,13:10,0.662,0.953,0.606,1.184,0.847,0.385,0.670,0.632,��,5.8,��
2020/11/06,13:20,0.662,0.952,0.608,1.185,0.847,0.385,0.671,0.631,��,6.1,��
2020/11/06,13:30,0.661,0.952,0.605,1.184,0.849,0.386,0.672,0.632,��,5.0,��
2020/11/06,13:40,0.663,0.955,0.607,1.185,0.848,0.385,0.671,0.631,��쓌,4.8,��
2020/11/06,13:50,0.662,0.956,0.606,1.184,0.849,0.385,0.671,0.632,��,5.4,��
2020/11/06,14:00,0.663,0.955,0.607,1.187,0.849,0.383,0.671,0.632,��,5.2,��
2020/11/06,14:10,0.663,0.957,0.606,1.186,0.847,0.386,0.673,0.634,��,4.0,��
2020/11/06,14:20,0.662,0.958,0.608,1.184,0.848,0.384,0.671,0.632,��,4.2,��
2020/11/06,14:30,0.665,0.955,0.607,1.185,0.850,0.385,0.672,0.632,��쓌,4.6,��
2020/11/06,14:40,0.665,0.955,0.608,1.186,0.850,0.384,0.671,0.631,��쓌,5.8,��
2020/11/06,14:50,0.664,0.958,0.607,1.185,0.849,0.382,0.671,0.631,��쓌,6.4,��
2020/11/06,15:00,0.663,0.958,0.607,1.185,0.847,0.383,0.672,0.632,��,5.6,��
2020/11/06,15:10,0.664,0.956,0.608,1.186,0.848,0.385,0.672,0.632,��,6.1,��
2020/11/06,15:20,0.664,0.957,0.607,1.185,0.849,0.385,0.670,0.632,��,7.2,��
2020/11/06,15:30,0.661,0.958,0.608,1.185,0.850,0.385,0.671,0.633,��,6.2,��
2020/11/06,15:40,0.664,0.958,0.605,1.187,0.849,0.385,0.673,0.633,��,6.4,��
2020/11/06,15:50,0.665,0.958,0.607,1.188,0.850,0.385,0.672,0.632,��,5.7,��
2020/11/06,16:00,0.663,0.958,0.608,1.187,0.849,0.385,0.671,0.633,��,5.7,��
2020/11/06,16:10,0.663,0.958,0.607,1.185,0.848,0.383,0.670,0.634,��,4.2,��
2020/11/06,16:20,0.663,0.956,0.607,1.186,0.849,0.384,0.673,0.634,��,4.2,��
2020/11/06,16:30,0.664,0.960,0.607,1.187,0.851,0.385,0.672,0.633,��,4.5,��
2020/11/06,16:40,0.664,0.958,0.608,1.185,0.849,0.385,0.674,0.633,��,4.6,��
2020/11/06,16:50,0.664,0.959,0.607,1.185,0.851,0.386,0.674,0.634,��쐼,4.7,��
2020/11/06,17:00,0.664,0.958,0.607,1.189,0.850,0.385,0.675,0.633,��,4.8,��
2020/11/06,17:10,0.664,0.958,0.607,1.187,0.851,0.385,0.672,0.634,��,4.4,��
2020/11/06,17:20,0.663,0.957,0.607,1.184,0.849,0.384,0.673,0.633,��쐼,4.4,��
2020/11/06,17:30,0.664,0.959,0.607,1.185,0.851,0.384,0.674,0.634,��,4.5,��
2020/11/06,17:40,0.664,0.959,0.607,1.186,0.849,0.385,0.671,0.634,��,5.0,��
2020/11/06,17:50,0.666,0.958,0.608,1.185,0.850,0.386,0.673,0.633,��,5.3,��
2020/11/06,18:00,0.664,0.958,0.606,1.185,0.851,0.385,0.673,0.632,��,5.7,��
2020/11/06,18:10,0.664,0.960,0.608,1.185,0.848,0.385,0.674,0.634,��,5.1,��
2020/11/06,18:20,0.664,0.958,0.607,1.186,0.849,0.385,0.672,0.632,��,5.6,��
2020/11/06,18:30,0.664,0.958,0.606,1.188,0.852,0.385,0.671,0.631,��,5.6,��
2020/11/06,18:40,0.664,0.958,0.607,1.186,0.852,0.385,0.673,0.634,��,5.4,��
2020/11/06,18:50,0.665,0.958,0.606,1.187,0.850,0.385,0.675,0.632,��,5.2,��
2020/11/06,19:00,0.663,0.959,0.608,1.185,0.852,0.386,0.674,0.633,��쐼,4.4,��
2020/11/06,19:10,0.665,0.958,0.605,1.186,0.852,0.384,0.672,0.634,��쐼,4.1,��
2020/11/06,19:20,0.665,0.958,0.605,1.185,0.850,0.385,0.672,0.633,��쐼,2.9,��
2020/11/06,19:30,0.664,0.957,0.606,1.187,0.849,0.385,0.672,0.633,�쐼,2.3,��
2020/11/06,19:40,0.663,0.959,0.605,1.186,0.851,0.385,0.672,0.634,��쐼,2.8,��
2020/11/06,19:50,0.664,0.957,0.607,1.186,0.852,0.385,0.674,0.633,��쐼,3.6,��
2020/11/06,20:00,0.664,0.957,0.607,1.185,0.850,0.384,0.673,0.633,��쐼,3.6,��
2020/11/06,20:10,0.665,0.958,0.608,1.187,0.851,0.386,0.674,0.635,��쐼,5.1,��
2020/11/06,20:20,0.663,0.957,0.607,1.186,0.852,0.385,0.673,0.634,��,4.3,��
2020/11/06,20:30,0.665,0.958,0.607,1.186,0.850,0.384,0.673,0.632,��,2.9,��
2020/11/06,20:40,0.663,0.958,0.606,1.187,0.852,0.385,0.673,0.634,��쓌,3.2,��
2020/11/06,20:50,0.664,0.956,0.607,1.184,0.852,0.386,0.673,0.635,��,3.6,��
2020/11/06,21:00,0.664,0.956,0.606,1.187,0.850,0.384,0.672,0.633,��쓌,4.3,��
2020/11/06,21:10,0.665,0.958,0.605,1.187,0.851,0.387,0.673,0.634,��,3.6,��
2020/11/06,21:20,0.664,0.957,0.604,1.184,0.851,0.386,0.673,0.635,��,3.2,��
2020/11/06,21:30,0.663,0.957,0.608,1.183,0.850,0.385,0.672,0.633,�쐼,3.1,��
2020/11/06,21:40,0.663,0.955,0.606,1.184,0.851,0.384,0.672,0.633,��쐼,3.6,��
2020/11/06,21:50,0.664,0.956,0.608,1.186,0.851,0.386,0.671,0.632,�쐼,3.2,��
2020/11/06,22:00,0.667,0.959,0.608,1.186,0.851,0.385,0.674,0.635,�쐼,1.9,��
2020/11/06,22:10,0.663,0.956,0.607,1.187,0.850,0.384,0.674,0.633,�쐼,1.7,��
2020/11/06,22:20,0.665,0.958,0.604,1.185,0.850,0.386,0.672,0.633,��,1.1,��
2020/11/06,22:30,0.664,0.955,0.606,1.186,0.850,0.384,0.672,0.634,�k�k��,1.1,��
2020/11/06,22:40,0.663,0.955,0.605,1.184,0.850,0.384,0.673,0.633,-,CALM,��
2020/11/06,22:50,0.664,0.958,0.606,1.186,0.850,0.386,0.673,0.633,��쐼,3.2,��
2020/11/06,23:00,0.663,0.957,0.607,1.185,0.849,0.383,0.673,0.633,�쐼,3.2,��
2020/11/06,23:10,0.663,0.956,0.606,1.185,0.850,0.385,0.673,0.632,�쐼,2.3,��
2020/11/06,23:20,0.663,0.957,0.607,1.186,0.851,0.384,0.673,0.633,�쐼,3.7,��
2020/11/06,23:30,0.664,0.955,0.607,1.187,0.849,0.387,0.672,0.633,�쐼,3.8,��
2020/11/06,23:40,0.663,0.957,0.607,1.187,0.851,0.387,0.674,0.633,�쐼,2.6,��
2020/11/06,23:50,0.663,0.957,0.607,1.188,0.851,0.385,0.675,0.634,-,CALM,��
